Regional Weather Roundup
Issued by NWS

Home | Current Version | Previous Version | Text Only | Print | Product List | Glossary Off
Versions: 1 2 3 4 5 6 7 8 9 10 11 12 13 14 15 16 17 18 19 20 21 22 23 24 25 26 27 28 29 30 31 32 33 34 35 36 37 38 39 40 41 42 43 44 45 46 47 48 49 50

000
ASUS43 KLSX 012307
RWRMO

WEATHER SUMMARY FOR MISSOURI
NATIONAL WEATHER SERVICE SPRINGFIELD MO
600 PM CDT WED APR 01 2015

NOTE: "FAIR" INDICATES FEW OR NO CLOUDS BELOW 12,000 FEET WITH NO
       SIGNIFICANT WEATHER AND/OR OBSTRUCTIONS TO VISIBILITY.
       CURRENT SKY AND/OR WEATHER CONDITIONS ARE NOT AVAILABLE FOR
       CHILLICOTHE AND FARMINGTON.

MOZ001>031-035>038-043-044-053-054-020000-
...NORTHERN AND WESTERN MISSOURI...

CITY           SKY/WX    TMP DP  RH WIND       PRES   REMARKS
KANSAS CTY INT MOSUNNY   72  56  57 S25G35    29.73S
KANSAS C DTWN  LGT RAIN  72  55  55 S18G36    29.75S
LEE`S SUMMIT   LGT RAIN  69  52  54 S16G30    29.78S
ST JOSEPH      SUNNY     78  52  40 S26G33    29.68F
CHILLICOTHE      N/A     73  53  49 S16G31    29.77R
KIRKSVILLE     MOSUNNY   75  46  35 S17G31    29.79S

$$
MOZ066>068-077>081-088>096-101>105-020000-
...SOUTHWEST MISSOURI...

CITY           SKY/WX    TMP DP  RH WIND       PRES   REMARKS
SPRINGFIELD    CLOUDY    65  61  87 S23G30    29.81F
JOPLIN         SUNNY     70  62  76 SE9       29.78F

$$
MOZ032>034-039>042-045>050-055>058-069>072-020000-
...CENTRAL MISSOURI...

CITY           SKY/WX    TMP DP  RH WIND       PRES   REMARKS
COLUMBIA       LGT RAIN  65  54  67 S23G32    29.86R
JEFFERSON CITY TSTM      62  56  80 S23G31    29.89R
ROLLA          LGT RAIN  61  53  75 S9        29.90R
SEDALIA        RAIN      60  56  86 S31G38    29.81F FOG
WHITEMAN AFB   PTSUNNY   63  54  72 S17G29    29.79F
WARRENSBURG    CLOUDY    63  54  72 S15       29.79F
OSAGE BEACH    CLOUDY    59  54  82 SE9       29.87F

$$
MOZ051-052-059>065-020000-
...EAST CENTRAL MISSOURI...

CITY           SKY/WX    TMP DP  RH WIND       PRES   REMARKS
ST LOUIS INTL  CLOUDY    75  37  25 S16G24    29.90F
SPIRIT OF STL  CLOUDY    74  39  28 S13G23    29.88S
ST CHARLES     PTSUNNY   73  39  29 S20G28    29.88F

$$
MOZ072>076-082>087-097>100-106>115-020000-
...SOUTH CENTRAL AND SOUTHEAST MISSOURI...

CITY           SKY/WX    TMP DP  RH WIND       PRES   REMARKS
CAPE GIRARDEAU CLOUDY    69  48  47 S5        29.95S
FARMINGTON     CLOUDY    68  39  34 S14       29.98S
POPLAR BLUFF   LGT RAIN  62  58  86 NE7       29.92F
WEST PLAINS    CLOUDY    66  58  75 S9        29.93F

$$


USA.gov is the U.S. government's official web portal to all federal, state and local government web resources and services.